Location: Belfast
(54.5830°N, 5.9330°W)
Time: 13:00:45
(UTC+00:00)

ISS - Pass Details

Date: 13 December 2017
Orbit: 402 x 406 km, 51.6° (Epoch: 16 December)

Event Time Altitude Azimuth Distance (km) Brightness Sun altitude
Rises 16:58:41 0° 273° (W) 2,333 1.1 -8.0°
Reaches altitude 10° 17:00:50 10° 265° (W) 1,471 0.2 -8.3°
Maximum altitude 17:03:56 38° 196° (SSW) 639 -2.4 -8.7°
Drops below altitude 10° 17:07:01 10° 126° (SE) 1,465 -1.3 -9.1°
Enters shadow 17:09:03 - 119° (ESE) 2,278 -0.4 -9.4°
